Wind_Speed
40 42 44 44 44 45 46 46 47 47 47 47 48 48 47 47 47 46 46 45 45 45 45 45 44 44 45 45 44 45 46 46 46 45 45 45 44 44 44 43 44 45 44
40 41 42 43 44 45 46 45 45 45 45 45 46 46 47 47 47 47 46 45 45 45 45 44 44 45 45 44 44 45 45 45 44 44 43 43 43 42 43 43 44 44 42
39 41 42 42 42 43 43 43 44 44 44 44 45 45 45 45 46 45 45 44 44 44 43 43 43 43 43 43 43 43 43 42 42 41 41 41 41 41 42 42 41 41 40
36 38 39 40 40 41 41 41 42 42 43 43 43 43 43 44 44 44 44 44 43 43 43 43 43 42 42 42 41 41 40 40 39 39 40 40 40 40 40 39 38 38 37
35 35 36 37 38 39 39 40 40 41 41 40 41 41 41 41 42 43 44 44 43 42 42 42 42 42 42 41 40 40 39 38 38 38 39 39 39 39 38 37 36 36 35
32 33 33 34 35 36 37 39 39 38 38 38 39 39 40 41 41 41 42 42 43 42 41 42 42 41 40 40 39 40 38 38 37 37 37 36 36 36 36 36 35 35 34
30 31 32 33 35 35 36 37 37 37 37 38 38 39 40 40 40 40 41 42 43 42 41 41 40 40 38 38 38 38 37 37 36 36 35 34 34 34 35 35 34 33 33
29 29 30 31 32 33 34 35 35 34 35 36 37 37 37 38 39 39 40 41 42 42 41 40 39 36 36 35 35 35 35 35 34 34 33 33 33 33 34 34 32 32 32
26 27 28 29 30 31 32 32 33 34 35 36 37 37 37 37 37 38 38 38 39 40 40 39 37 36 35 34 34 35 35 35 34 34 34 33 32 32 32 32 31 31 30
26 27 27 28 27 28 29 30 31 31 32 33 35 35 36 36 37 37 36 36 37 38 38 37 36 34 34 33 33 33 33 33 33 34 34 33 31 30 30 30 29 29 28
25 25 26 26 27 27 28 28 29 31 32 33 33 34 34 34 34 35 35 35 35 35 35 34 34 33 33 32 32 31 31 32 32 32 32 31 30 29 27 27 27 26 26
25 24 24 25 25 25 26 27 29 30 31 32 32 32 32 32 32 32 33 32 32 32 31 32 32 31 31 30 30 29 29 29 29 29 28 27 26 25 24 24 24 24 24
23 23 24 25 25 25 26 26 27 28 28 29 29 30 31 31 32 32 31 30 29 29 29 29 30 30 30 29 28 27 27 26 26 25 24 24 23 22 22 21 21 21 21
24 24 24 24 24 24 25 25 26 26 27 27 28 28 28 29 29 29 28 28 27 27 27 28 28 28 29 29 28 26 25 25 24 23 22 21 20 20 20 19 19 19 18
24 23 23 23 24 24 25 26 26 26 26 26 26 26 26 27 27 26 26 26 26 25 26 27 28 28 28 28 27 26 25 23 22 21 21 20 19 19 19 18 17 16 15
24 23 24 25 25 25 26 26 26 26 26 25 25 25 25 25 25 25 25 25 25 25 25 26 26 26 26 26 26 23 22 21 20 20 21 20 20 19 18 16 16 14 12
24 25 25 26 26 26 26 26 26 25 25 24 24 23 23 23 23 23 24 24 24 24 24 24 24 23 23 22 22 22 21 20 20 19 19 18 17 16 15 13 13 12 11
25 25 26 26 26 25 25 24 24 23 22 22 21 21 21 21 21 22 22 22 22 22 23 22 21 21 21 20 20 20 19 18 17 16 15 15 14 13 12 11 11 11 11
25 25 25 24 24 24 23 22 22 21 20 20 20 20 21 21 21 21 21 20 20 20 20 20 19 19 19 18 18 17 17 16 15 14 14 14 13 12 11 11 10 10 10
23 23 23 22 22 22 21 21 20 19 19 19 20 20 20 20 20 20 19 19 18 18 18 18 18 17 17 16 16 16 16 15 15 14 14 13 13 12 12 11 11 10 10
21 21 20 20 20 19 19 18 18 18 18 18 18 18 18 18 19 18 18 17 16 16 16 16 16 16 16 16 16 16 16 16 16 15 15 14 13 13 13 12 11 10 9
19 19 19 18 17 16 15 15 15 15 16 16 16 16 16 16 16 16 15 15 14 14 14 15 15 16 16 16 15 15 16 16 16 16 16 15 14 13 13 12 10 9 9
17 17 17 15 15 14 13 13 13 13 13 13 13 13 14 14 14 14 14 13 13 13 13 14 14 15 15 15 15 15 15 15 16 16 16 15 15 14 13 11 10 10 9
17 16 15 14 13 13 12 12 12 11 11 11 12 12 13 12 12 12 12 12 12 12 13 13 13 14 14 14 14 14 15 15 15 15 15 15 14 14 12 11 10 10 10
15 14 13 12 12 12 11 11 11 11 11 11 12 12 12 12 12 12 12 12 12 12 12 12 12 12 13 13 14 14 14 14 14 14 14 14 13 13 12 11 11 11 10
13 12 11 11 11 10 10 10 10 11 10 10 10 11 11 11 11 11 11 11 11 11 10 11 11 11 12 13 13 13 14 14 14 14 13 12 12 11 11 11 10 10 10
Wind_Direction
260 259 257 256 256 257 259 261 261 261 261 259 259 260 261 262 263 265 266 267 268 269 270 271 270 272 274 275 277 277 278 279 278 278 279 279 280 280 281 283 284 283 284
261 259 257 256 257 258 259 261 262 262 262 261 261 261 261 262 262 263 265 266 267 268 270 270 269 271 273 275 277 277 278 278 278 278 278 278 279 280 281 282 283 283 284
264 260 257 257 257 258 260 260 261 262 262 261 261 261 261 262 262 263 264 265 266 267 268 268 269 271 273 275 277 278 278 277 277 277 277 277 279 280 281 282 283 284 283
266 263 259 258 257 259 260 261 261 261 260 260 261 259 260 261 262 263 263 264 265 267 267 268 268 270 273 274 275 277 277 276 277 277 278 278 278 280 280 281 283 284 283
266 263 260 258 257 258 259 261 261 261 260 261 261 259 260 261 262 263 263 264 265 266 267 267 268 270 272 274 274 276 276 275 275 277 278 279 279 279 280 281 282 283 281
264 263 261 258 258 259 260 260 259 259 260 260 260 259 260 262 264 265 264 264 265 267 268 268 268 269 270 273 273 274 274 275 275 277 279 280 280 280 280 281 281 280 280
267 266 263 261 259 260 261 260 258 259 260 261 261 260 260 262 264 265 266 266 266 265 268 270 270 269 269 270 272 272 273 274 276 277 279 280 279 279 280 280 280 278 279
269 269 266 264 262 262 262 259 258 258 260 261 261 262 262 263 264 266 266 266 265 265 267 269 270 269 268 270 271 272 273 273 275 277 279 280 279 279 279 279 279 279 279
273 272 268 267 264 263 262 260 259 260 260 261 262 262 263 263 264 265 266 266 266 266 267 267 267 266 266 267 268 270 272 274 276 277 279 279 279 280 279 277 277 279 278
277 274 271 269 267 265 263 262 262 263 263 263 263 263 263 262 263 264 265 266 266 266 266 264 263 263 263 264 267 271 273 275 276 276 277 278 279 280 279 276 275 278 280
278 275 273 270 269 269 269 266 264 264 265 264 264 263 262 262 262 263 265 266 266 265 264 261 260 261 263 265 267 269 271 274 275 275 276 276 278 281 279 275 275 277 279
280 277 274 272 273 274 271 269 267 267 267 266 264 263 263 264 264 264 266 266 265 263 262 261 260 259 261 264 266 269 273 275 275 275 275 276 277 279 277 273 275 278 279
282 278 277 278 278 277 275 273 271 271 271 269 267 266 266 265 264 265 265 265 265 264 263 260 259 259 260 264 267 270 272 274 275 275 275 276 276 275 276 273 274 277 278
285 283 282 281 280 278 276 275 275 274 273 271 268 267 266 265 266 265 264 264 263 264 263 260 261 262 263 265 266 269 271 273 274 273 272 274 274 275 277 276 275 278 277
287 285 283 283 284 283 281 280 279 276 274 271 268 267 266 265 265 264 262 262 261 262 263 263 263 263 263 263 264 266 268 268 270 270 270 270 273 275 276 276 275 278 277
287 285 284 284 283 283 282 281 280 277 273 269 266 266 267 267 265 262 261 260 260 260 261 264 264 263 260 260 261 263 263 264 267 268 267 269 271 274 276 274 271 271 275
288 286 286 285 284 283 282 282 279 275 270 266 263 263 264 264 262 260 259 259 260 261 261 262 262 259 258 259 259 258 259 262 265 266 265 266 269 271 274 272 269 267 267
287 287 287 287 285 283 282 281 277 273 268 264 262 262 261 261 261 260 258 259 259 261 262 261 257 254 253 254 254 254 254 257 258 259 258 258 260 265 270 270 270 270 266
288 287 287 287 284 283 281 278 275 270 265 262 261 260 259 259 259 258 257 258 259 259 259 255 251 250 247 248 247 244 244 246 249 249 248 249 252 258 265 266 266 267 264
290 289 288 287 285 283 281 278 274 269 265 261 260 259 257 257 256 256 256 256 257 257 256 250 245 243 241 240 239 239 240 243 246 245 244 246 247 250 258 262 262 262 263
293 292 291 288 286 283 280 277 273 269 266 262 259 258 258 257 255 253 252 252 253 254 250 245 242 239 238 238 238 241 241 242 243 243 242 244 245 247 251 255 256 257 255
297 294 290 287 285 282 280 277 273 270 265 261 258 257 258 254 250 248 246 247 249 250 247 243 241 240 239 237 237 240 242 242 241 240 242 243 242 245 248 250 249 249 247
298 295 291 284 280 280 280 279 276 271 267 260 255 253 249 246 242 240 241 245 247 247 245 242 241 239 238 238 238 239 241 241 239 238 240 242 240 240 243 242 239 242 244
299 295 290 283 279 277 278 277 274 272 268 260 253 248 242 238 238 240 242 245 244 242 240 241 241 240 237 237 239 239 239 239 238 238 238 240 239 239 239 236 238 241 243
300 296 289 284 281 279 276 273 273 274 268 263 253 246 239 236 237 241 244 245 243 242 240 239 239 239 238 238 237 237 236 236 238 236 234 235 234 232 233 236 242 247 247
301 297 291 286 284 282 277 274 273 272 267 261 251 242 237 235 237 240 239 240 239 240 239 238 240 240 240 239 236 236 234 232 232 231 229 229 229 230 232 234 239 242 241
Height
5610 5612 5614 5617 5619 5621 5623 5625 5626 5627 5628 5629 5630 5631 5632 5633 5634 5634 5635 5635 5635 5635 5634 5634 5633 5632 5632 5631 5630 5629 5628 5626 5625 5625 5624 5621 5619 5617 5614 5612 5609 5606 5604
5599 5600 5602 5605 5606 5609 5611 5612 5613 5615 5616 5617 5618 5619 5620 5620 5621 5622 5622 5623 5623 5623 5623 5622 5621 5621 5620 5619 5618 5617 5616 5614 5613 5613 5612 5610 5608 5606 5603 5601 5598 5595 5593
5588 5588 5590 5593 5594 5596 5598 5599 5601 5602 5603 5604 5605 5606 5607 5608 5609 5609 5610 5611 5611 5611 5611 5610 5610 5610 5609 5608 5607 5605 5604 5603 5602 5601 5601 5599 5597 5595 5593 5590 5587 5585 5582
5577 5577 5579 5580 5582 5584 5586 5587 5588 5590 5591 5592 5593 5594 5595 5596 5597 5598 5598 5599 5599 5600 5599 5599 5599 5599 5598 5597 5595 5594 5593 5592 5591 5590 5590 5588 5587 5585 5582 5580 5578 5575 5573
5567 5568 5568 5570 5572 5573 5574 5576 5577 5578 5579 5580 5581 5582 5583 5585 5586 5586 5587 5588 5588 5589 5589 5588 5588 5587 5587 5586 5585 5584 5583 5582 5581 5580 5579 5578 5577 5575 5573 5571 5569 5566 5564
5559 5559 5559 5560 5562 5563 5564 5565 5566 5567 5568 5570 5571 5572 5573 5574 5575 5575 5576 5577 5577 5578 5578 5577 5577 5576 5576 5575 5574 5573 5573 5572 5571 5570 5569 5568 5567 5565 5563 5561 5560 5558 5557
5551 5551 5551 5552 5553 5554 5554 5555 5556 5558 5559 5560 5561 5562 5563 5564 5564 5565 5565 5565 5566 5567 5567 5567 5566 5565 5565 5565 5564 5564 5563 5562 5562 5561 5560 5559 5558 5556 5554 5552 5550 5548 5547
5543 5543 5543 5543 5543 5544 5545 5545 5547 5548 5549 5550 5551 5552 5553 5553 5554 5554 5554 5554 5555 5555 5556 5556 5555 5555 5555 5555 5554 5554 5554 5553 5552 5552 5551 5550 5548 5546 5545 5543 5541 5540 5539
5535 5534 5534 5534 5534 5535 5535 5536 5537 5539 5540 5540 5541 5541 5542 5543 5543 5543 5543 5544 5544 5545 5545 5545 5545 5545 5545 5545 5545 5545 5545 5544 5543 5542 5541 5540 5538 5537 5535 5533 5532 5531 5531
5527 5526 5526 5526 5526 5526 5527 5527 5528 5529 5529 5530 5530 5531 5531 5532 5533 5533 5533 5534 5534 5534 5534 5534 5535 5536 5536 5536 5536 5536 5536 5535 5534 5533 5532 5530 5529 5527 5526 5525 5524 5523 5523
5520 5519 5518 5518 5518 5518 5518 5519 5519 5520 5520 5521 5521 5521 5522 5522 5522 5522 5523 5523 5523 5523 5524 5525 5526 5527 5527 5528 5528 5528 5527 5526 5525 5524 5523 5522 5520 5519 5517 5517 5516 5516 5515
5512 5511 5511 5511 5510 5510 5510 5510 5510 5510 5510 5511 5511 5512 5512 5512 5512 5512 5513 5513 5513 5514 5515 5516 5517 5518 5519 5519 5519 5519 5518 5517 5516 5515 5514 5513 5513 5512 5510 5509 5509 5508 5508
5506 5505 5504 5504 5503 5502 5502 5502 5502 5501 5501 5501 5501 5501 5502 5502 5503 5503 5503 5504 5504 5505 5506 5507 5508 5509 5510 5510 5511 5510 5510 5509 5508 5508 5507 5507 5506 5505 5504 5503 5502 5502 5501
5499 5498 5497 5496 5495 5494 5494 5494 5493 5493 5492 5492 5492 5492 5493 5493 5493 5494 5494 5495 5496 5496 5497 5498 5499 5500 5501 5502 5502 5502 5502 5502 5501 5501 5501 5500 5499 5499 5498 5497 5497 5497 5496
5492 5491 5490 5489 5488 5487 5486 5485 5484 5483 5483 5483 5483 5483 5484 5485 5485 5485 5486 5487 5488 5488 5489 5490 5491 5492 5493 5493 5494 5495 5495 5495 5495 5495 5495 5494 5494 5494 5493 5492 5492 5492 5492
5485 5484 5483 5482 5480 5479 5478 5477 5475 5475 5474 5474 5474 5474 5475 5475 5476 5477 5478 5479 5480 5481 5482 5483 5484 5484 5485 5486 5487 5488 5488 5489 5489 5489 5489 5489 5489 5488 5488 5488 5488 5488 5488
5478 5476 5475 5473 5472 5470 5469 5468 5466 5466 5465 5465 5465 5466 5466 5467 5468 5469 5470 5471 5472 5473 5474 5475 5476 5476 5477 5478 5480 5481 5482 5482 5483 5483 5483 5483 5484 5484 5484 5484 5484 5484 5484
5470 5468 5466 5464 5463 5461 5460 5458 5457 5457 5457 5457 5458 5458 5459 5460 5460 5461 5462 5464 5465 5465 5466 5467 5468 5469 5470 5471 5473 5474 5475 5476 5477 5477 5478 5479 5479 5480 5480 5480 5480 5481 5481
5462 5460 5458 5456 5454 5453 5451 5450 5450 5450 5450 5450 5451 5451 5452 5453 5453 5454 5455 5456 5457 5458 5459 5460 5461 5462 5464 5465 5467 5468 5470 5471 5472 5472 5473 5474 5475 5476 5476 5477 5477 5477 5478
5454 5452 5450 5448 5447 5445 5444 5443 5443 5443 5443 5443 5444 5444 5445 5446 5447 5447 5448 5449 5450 5451 5452 5454 5455 5456 5458 5459 5461 5463 5464 5465 5467 5468 5469 5470 5471 5472 5472 5473 5473 5474 5474
5447 5445 5443 5441 5440 5439 5438 5437 5436 5436 5436 5437 5437 5438 5438 5439 5440 5441 5442 5443 5445 5446 5447 5448 5450 5451 5453 5454 5456 5457 5459 5460 5462 5463 5465 5466 5467 5468 5469 5469 5470 5470 5471
5441 5439 5437 5436 5434 5433 5432 5431 5431 5431 5431 5431 5431 5432 5433 5433 5434 5436 5437 5439 5440 5441 5442 5443 5445 5446 5448 5449 5451 5453 5454 5456 5457 5459 5460 5461 5462 5463 5464 5465 5466 5467 5467
5436 5434 5432 5430 5429 5428 5428 5427 5426 5426 5426 5426 5426 5427 5428 5429 5430 5431 5433 5435 5436 5437 5438 5439 5440 5442 5444 5445 5446 5448 5449 5451 5452 5454 5455 5457 5458 5459 5460 5461 5462 5463 5464
5431 5429 5427 5426 5425 5424 5423 5422 5422 5422 5421 5422 5422 5423 5424 5425 5426 5428 5429 5430 5431 5433 5434 5435 5437 5438 5439 5440 5442 5443 5445 5446 5448 5449 5451 5452 5454 5455 5456 5458 5459 5460 5461
5426 5424 5423 5422 5421 5420 5419 5419 5418 5418 5418 5418 5418 5419 5420 5421 5423 5424 5425 5426 5428 5429 5430 5431 5432 5434 5435 5436 5437 5439 5440 5442 5443 5445 5447 5448 5450 5452 5453 5455 5456 5457 5458
5422 5420 5419 5418 5417 5416 5416 5415 5415 5414 5414 5415 5415 5415 5416 5418 5419 5420 5421 5423 5424 5425 5426 5427 5429 5430 5431 5432 5433 5435 5437 5438 5440 5441 5443 5445 5447 5448 5450 5452 5453 5454 5455